Location: ???? ????
(31.2831°N, 45.5190°E)
Time: 09:48:53
(UTC+00:00)

Meteor 1-20 Rocket - Visible Passes

Search period start: 23 June 2021 00:00
Search period end: 03 July 2021 00:00
Orbit: 818 x 893 km, 81.2° (Epoch: 22 June)

Date Brightness Start Highest point End Pass type
(mag) Time Alt. Az. Time Alt. Az. Time Alt. Az.
23 Jun 5.3 00:09:30 10° SSE 00:14:39 41° E 00:19:45 10° NNE visible
23 Jun 5.4 23:59:03 10° SSE 00:04:07 38° E 00:09:08 10° NNE visible
24 Jun 5.5 23:49:09 13° SSE 23:53:35 36° E 23:58:32 10° NNE visible
25 Jun 5.5 23:39:15 15° SSE 23:43:03 34° E 23:47:55 10° NNE visible
26 Jun 5.5 01:21:52 10° SW 01:26:03 22° WNW 01:30:14 10° NNW visible
26 Jun 5.6 23:29:17 18° SE 23:32:31 32° E 23:37:18 10° NNE visible
27 Jun 5.4 01:11:25 11° SW 01:15:29 23° WNW 01:19:48 10° NNW visible
27 Jun 5.7 23:19:16 20° SE 23:22:00 30° E 23:26:40 10° NNE visible
28 Jun 5.3 01:01:25 14° WSW 01:04:54 25° WNW 01:09:21 10° NNW visible
28 Jun 5.7 23:09:14 21° SE 23:11:27 28° E 23:16:01 10° NNE visible
29 Jun 5.3 00:51:23 17° WSW 00:54:20 26° WNW 00:58:53 10° NNW visible
29 Jun 5.8 22:59:11 22° ESE 23:00:56 26° E 23:05:23 10° NE visible
30 Jun 5.2 00:41:19 20° WSW 00:43:46 28° WNW 00:48:25 10° NNW visible
30 Jun 5.8 22:49:04 22° ESE 22:50:24 25° E 22:54:43 10° NE visible
01 Jul 5.1 00:31:13 24° WSW 00:33:12 30° WNW 00:37:58 10° NNW visible
01 Jul 5.9 22:38:57 22° ESE 22:39:53 23° E 22:44:04 10° NE visible
02 Jul 5.0 00:21:05 27° WSW 00:22:38 32° WNW 00:27:29 10° NNW visible
02 Jul 5.9 22:28:48 21° E 22:29:22 22° E 22:33:24 10° NE visible
